Regional Weather Roundup
Issued by NWS

Home | Current Version | Previous Version | Text Only | Print | Product List | Glossary Off
Versions: 1 2 3 4 5 6 7 8 9 10 11 12 13 14 15 16 17 18 19 20 21 22 23 24 25 26 27

000
ASUS45 KSLC 211710
RWRUT

UTAH REGIONAL WEATHER ROUNDUP
NATIONAL WEATHER SERVICE SALT LAKE CITY UT
1100 AM MDT THU SEP 21 2017

UTZ001>011-023>025-211800-

NORTHERN UTAH

CITY           SKY/WX    TMP DP  RH WIND       PRES   REMARKS
BRIGHAM CITY   CLOUDY    48  41  75 N13       29.81R
DUGWAY         MOSUNNY   54  37  52 N12       29.78R
HILL AFB       PTSUNNY   51  40  66 N13       29.79R
LOGAN          CLOUDY    47  43  86 NW7       29.80R
OGDEN          CLOUDY    51  42  71 NW12      29.79R
SALT LAKE CITY PTSUNNY   56  41  57 NW9       29.77S
TOOELE VALLEY  CLOUDY    50  39  66 NW14      29.81R
WENDOVER       LGT RAIN  45  39  79 N8        29.82S
HEBER CITY     PTSUNNY   68  34  28 SW16G25   29.71S
WEST JORDAN    CLOUDY    56  47  71 NW10      29.79S

$$

UTZ011>015-024>027-211800-

CENTRAL/NORTHEAST UTAH

CITY           SKY/WX    TMP DP  RH WIND       PRES   REMARKS
PROVO AIRPORT  MOSUNNY   59  43  55 NW10      29.76
MOAB/CANYONLAN SUNNY     77  35  21 S22G36    29.77F
DELTA          SUNNY     59  37  44 N14       29.74F
PRICE          SUNNY     68  35  29 S21G29    29.80F
RICHFIELD      SUNNY     70  39  32 S22G29    29.75S
ROOSEVELT      SUNNY     73  34  23 SW14G23   29.76F
VERNAL         SUNNY     74  36  25 SW24G31   29.74F

$$

UTZ013>016-019>022-027-211800-

SOUTHERN UTAH

CITY           SKY/WX    TMP DP  RH WIND       PRES   REMARKS
BRYCE CANYON   SUNNY     60  34  37 S12G30    29.96F
CEDAR CITY     SUNNY     68  36  30 S30G44    29.77F
MILFORD        SUNNY     71  37  28 S29G40    29.73S
ST GEORGE      MOSUNNY   81  39  22 SW21G28   29.70
HANKSVILLE     SUNNY     75  32  20 S13G36    29.80F
KANAB          SUNNY     72  37  28 S18G29    29.89F
BLANDING         N/A     69  32  25 S18G24    30.04F

$$

REGIONAL REPORTS     COLORADO/ARIZONA

CITY           SKY/WX    TMP DP  RH WIND       PRES   REMARKS
CRAIG, CO      SUNNY     73  24  16 SW33G46   29.82F
GRAND JUNCTION SUNNY     78  32  18 S21       29.81F
RIFLE, CO      SUNNY     77  28  16 W14       29.85F
MONTROSE, CO   SUNNY     74  27  17 CALM      29.93F
CORTEZ, CO     SUNNY     73  28  18 S14G22    30.00F
PAGE, AZ       SUNNY     76  39  26 S17G25    29.82F
GRAND CANYON   SUNNY     66  37  34 SW17G29   30.01F
KINGMAN, AZ    SUNNY     78  37  22 S21G28    29.83R
FLAGSTAFF, AZ  SUNNY     61  28  28 SW21G32   30.06S

$$

REGIONAL REPORTS    NEVADA/IDAHO/WYOMING

CITY           SKY/WX    TMP DP  RH WIND       PRES   REMARKS
LAS VEGAS, NV  MOSUNNY   78  41  26 S17G30    29.70R
ELY, NY        CLOUDY    43  34  70 N13       29.82S
ELKO, NV       LGT RAIN  36  33  89 N5        29.85R WCI  32
POCATELLO, ID  LGT RAIN  41  38  89 S8        29.84R
BURLEY, ID     LGT RAIN  42  40  92 SW6       29.84R
FORT BRIDGER,    N/A     53  40  60 N6        29.81F
EVANSTON, WY   MOSUNNY   50  39  66 NW6       29.78S
ROCK SPRINGS,  SUNNY     64  30  27 S26G38    29.75F
KEMMERER, WY     N/A     52  36  54 W9        29.80S

$$




USA.gov is the U.S. government's official web portal to all federal, state and local government web resources and services.